Location: Gülübeli Geçidi
(36.8411°N, 29.7411°E)
Time: 10:47:22
(UTC+00:00)

BREEZE-M DEB (TANK) - Pass Details

Date: 15 May 2026
Orbit: 282 x 16060 km, 49.4° (Epoch: 5 June)

Event Time Altitude Azimuth Distance (km) Brightness Sun altitude
Rises 18:20:26 0° 235° (SW) 6,653 8.5 -14.3°
Reaches altitude 10° 18:26:43 10° 238° (WSW) 3,901 7.4 -15.3°
Maximum altitude 18:34:09 68° 321° (NW) 649 3.3 -16.4°
Drops below altitude 10° 18:36:48 10° 46° (NE) 1,418 4.9 -16.8°
Enters shadow 18:37:27 - 49° (NE) 1,741 5.3 -16.9°
